Flag for United Kingdom Weather past 2 weeks in St. Peter Port, Guernsey, United Kingdom

Now
43 °F

Passing clouds.


Feels Like: 37 °F
Forecast: 41 / 46 °F
Wind: 9 mph from Northwest

Location: Guernsey Airport

Current Time: Dec 29, 2014 at 11:04:09 AM

Latest Report: Dec 29, 2014 at 10:20 AM


Visibility: N/A

Pressure: 30.77 "Hg

Humidity: 76%

Dew point: 36 °F

Location of St. Peter PortLocation

Historic Weather in St. Peter Port — Graph

°F

St. Peter Port temperature yesterday

Maximum temperature yesterday: 43 °F (at 11:20 AM)
Minimum temperature yesterday: 39 °F (at 8:50 AM)
Average temperature yesterday: 41 °F

Past Weeks' High & Low Weather Summary

 TemperatureHumidityPressure
High54 °F (Dec 17, 3:50 AM)100% (Dec 14, 8:20 PM)30.77 "Hg (Dec 14, 8:20 PM)
Low36 °F (Dec 29, 5:20 AM)61% (Dec 28, 3:50 PM)29.83 "Hg (Dec 27, 2:50 PM)
Average49 °F86%30.18 "Hg
* Reported Dec 14 9:20 AM — Dec 29 9:50 AM, St. Peter Port, Weather by CustomWeather, © 2014

Note: Actual official high and low records may vary slightly from our data, if they occured in-between our weather recording intervals... More about our weather records

Advertising

St. Peter Port weather history for previous 24 hours

 ConditionsComfort  
Time TempWeatherWind HumidityBarometerVisibility
9:50 AM
Dec 29
43 °FPassing clouds.8 mph76%30.77 "HgN/A
9:20 AM41 °FPassing clouds.8 mph81%30.77 "HgN/A
8:50 AM41 °FPassing clouds.8 mph81%30.77 "HgN/A
8:20 AM39 °FPassing clouds.9 mph81%30.77 "HgN/A
7:50 AM39 °FPassing clouds.7 mph81%30.77 "HgN/A
7:20 AM39 °FPassing clouds.5 mph81%30.74 "HgN/A
6:50 AM39 °FPassing clouds.5 mph81%30.74 "HgN/A
6:20 AM39 °FPassing clouds.3 mph81%30.74 "HgN/A
5:50 AM37 °FClear.No wind81%30.72 "Hg10 mi
5:20 AM36 °FClear.No wind87%30.72 "Hg10 mi
4:50 AM37 °FClear.No wind81%30.72 "Hg10 mi
4:20 AM37 °FPassing clouds.No wind81%30.72 "HgN/A
3:50 AM37 °FPassing clouds.No wind81%30.72 "HgN/A
8:50 PM
Dec 28
41 °FPassing clouds.5 mph70%30.66 "HgN/A
8:20 PM41 °FPassing clouds.7 mph70%30.63 "HgN/A
7:50 PM41 °FPassing clouds.8 mph70%30.63 "HgN/A
7:20 PM41 °FPassing clouds.8 mph66%30.60 "HgN/A
6:50 PM41 °FPassing clouds.9 mph66%30.60 "HgN/A
6:20 PM41 °FPassing clouds.10 mph66%30.57 "HgN/A
5:50 PM41 °FPassing clouds.10 mph66%30.57 "HgN/A
5:20 PM41 °FPassing clouds.12 mph70%30.54 "HgN/A
4:50 PM41 °FPassing clouds.14 mph66%30.51 "HgN/A
4:20 PM41 °FPassing clouds.12 mph66%30.51 "HgN/A
3:50 PM43 °FPassing clouds.16 mph61%30.51 "HgN/A
3:20 PM43 °FPassing clouds.14 mph66%30.48 "HgN/A
2:50 PM43 °FScattered clouds.14 mph71%30.48 "HgN/A
2:20 PM43 °FPassing clouds.14 mph71%30.45 "HgN/A
1:50 PM43 °FPassing clouds.14 mph66%30.45 "HgN/A
1:20 PM43 °FScattered clouds.17 mph71%30.42 "HgN/A
12:50 PM43 °FScattered clouds.15 mph71%30.42 "HgN/A
12:20 PM43 °FScattered clouds.15 mph71%30.42 "HgN/A
11:50 AM43 °FScattered clouds.14 mph71%30.39 "HgN/A
11:20 AM43 °FScattered clouds.16 mph66%30.39 "HgN/A
Weather by CustomWeather, © 2014

See weather overviewHow to use our weather pages